Tracking 27188 objects as of 1-Apr-2023
HD Live streaming from Space Station
objects crossing your sky now

STARLINK-4321

Track STARLINK-4321 now!
10-day predictions
STARLINK-4321 is classified as:


NORAD ID: 53082
Int'l Code: 2022-077AR
Perigee: 569.7 km
Apogee: 570.6 km
Inclination: 97.7 °
Period: 95.9 minutes
Semi major axis: 6941 km
RCS: Unknown
Launch date: July 11, 2022
Source: United States (US)
Launch site: AIR FORCE WESTERN TEST RANGE (AFWTR)
Your satellite tracking list
Your tracking list is empty




NASA's NSSDC Master Catalog

Two Line Element Set (TLE):
1 53082U 22077AR  23090.75090991  .00000472  00000-0  41296-4 0  9999
2 53082  97.6531 272.9333 0000645 127.1589 232.9694 15.01263603 40374
Source of the keplerian elements: AFSPC